Regional Weather Roundup
Issued by NWS Charleston, WV

Home | Current Version | Previous Version | Graphics & Text | Print | Product List | Glossary On
Versions: 1 2 3 4 5 6 7 8 9 10 11 12 13 14 15 16 17 18 19 20 21 22 23 24 25 26 27 28 29 30 31 32 33 34 35 36 37 38 39 40 41 42 43 44 45 46 47 48 49 50
000
ASUS41 KRLX 231210
RWRRLX
West Virginia Regional Weather Roundup
National Weather Service Charleston WV
700 AM EST MON JAN 23 2017

Note: "fair" indicates few or no clouds below 12,000 feet with no
significant weather and/or obstructions to visibility.

WVZ003-231300-
Northern Panhandle of West Virginia

CITY           SKY/WX    TMP DP  RH WIND       PRES   REMARKS
WHEELING       CLOUDY    50  41  71 E20G28    29.47R
$$

WVZ009-231300-
Northwest West Virginia

CITY           SKY/WX    TMP DP  RH WIND       PRES   REMARKS
PARKERSBURG    LGT RAIN  52  44  74 E10       29.42R
$$

WVZ006-231300-
Western West Virginia

CITY           SKY/WX    TMP DP  RH WIND       PRES   REMARKS
HUNTINGTON     LGT RAIN  51  48  89 N8        29.33R
$$

WVZ015-231300-
West Central West Virginia

CITY           SKY/WX    TMP DP  RH WIND       PRES   REMARKS
CHARLESTON     LGT RAIN  51  47  86 N9        29.30S
$$

WVZ022-031-231300-
North Central West Virginia

CITY           SKY/WX    TMP DP  RH WIND       PRES   REMARKS
CLARKSBURG     LGT RAIN  49  42  77 E15G22    29.41R
MORGANTOWN     LGT RAIN  48  40  73 NE9G18    29.45S
$$

WVZ025-035-042-045-231300-
Southern West Virginia

CITY           SKY/WX    TMP DP  RH WIND       PRES   REMARKS
BECKLEY        RAIN      47  43  86 E9G22     29.27S
LOGAN          LGT RAIN  50  50 100 CALM      29.27S
BLUEFIELD      RAIN      44  42  93 E12G23    29.26R FOG
LEWISBURG      DRIZZLE   45  42  91 NE10G20   29.29F
$$

WVZ047-231300-
Northern Mountains of West Virginia

CITY           SKY/WX    TMP DP  RH WIND       PRES   REMARKS
ELKINS         CLOUDY    49  37  63 VRB5      29.38R
$$

WVZ052-231300-
Eastern Panhandle of West Virginia

CITY           SKY/WX    TMP DP  RH WIND       PRES   REMARKS
MARTINSBURG    LGT RAIN  44  42  93 NE13      29.54R FOG
PETERSBURG     RAIN      48  45  88 N5        29.49S
$$




USA.gov is the U.S. government's official web portal to all federal, state and local government web resources and services.